Regional Weather Roundup
Issued by NWS Goodland, KS

Home | Current Version | Previous Version | Text Only | Print | Product List | Glossary On
Versions: 1 2 3 4 5 6 7 8 9 10 11 12 13 14 15 16 17 18 19 20 21 22 23 24 25 26 27 28 29 30 31 32 33 34 35 36 37 38 39 40 41 42 43 44 45 46 47 48 49 50
000
ASUS43 KGLD 311808
RWRGLD

GOODLAND FORECAST AREA HOURLY WEATHER ROUNDUP
NATIONAL WEATHER SERVICE GOODLAND KS
1200 PM MDT FRI JUL 31 2015

...OFFICIAL OBSERVATIONS...

CITY           SKY/WX    TMP DP  RH WIND       PRES   REMARKS
GOODLAND KS    MOSUNNY   83  63  50 SW9       30.26F
HILL CITY KS   SUNNY     89  67  47 W6        30.19F
IMPERIAL NEB   SUNNY     88  56  33 VRB5      30.23F
MCCOOK NEB     MOSUNNY   90  63  40 W10       30.19F
AKRON CO       SUNNY     86  53  32 S10       30.30F
BURLINGTON CO  MOSUNNY   83  61  47 S9        30.29F
LIMON CO       MOSUNNY   80  58  46 SE9G18    30.36F
$$

...UNOFFICIAL OBSERVATIONS...

CITY           SKY/WX    TMP DP  RH WIND       PRES   REMARKS
COLBY KS       SUNNY     88  66  48 SW8       30.25S
NORTON KS      SUNNY     88  63  42 S3        30.18F
SHARON SPRINGS   N/A     84  68  58 N5G14       N/A
KIT CARSON CO    N/A     83  62  48 MISG        N/A
$$


USA.gov is the U.S. government's official web portal to all federal, state and local government web resources and services.